CAPE
680 1060 1786 1353 1700 1391 1533 978 860 1129 729 450 130 4 221 320 87 172 56 279 222 309 762 714 511 429 598 882 939 1074 1262 1470 1893 2063 2062 2297 1559 1597 1730 1645 1455 1220 1173
687 1056 442 592 135 124 1131 855 721 943 834 890 459 235 79 178 496 389 129 197 251 898 287 236 271 410 593 392 331 271 274 949 1399 1597 1599 1887 1907 1548 1886 2061 1273 1039 1190
1742 158 41 59 1 5 842 1664 1702 1589 1251 435 555 317 243 822 939 813 347 280 661 478 212 220 601 605 637 451 413 337 242 173 230 1222 1409 1429 1444 1649 1647 1787 1599 1327 963
1503 45 105 33 60 669 549 824 606 1143 669 422 368 379 92 1051 1196 409 609 543 239 226 106 448 347 308 732 404 460 350 191 116 487 1105 1192 1188 1293 1562 1726 1946 1907 1327 1008
1640 497 0 0 388 825 773 673 220 1510 1351 1011 676 175 138 415 627 1003 1039 301 72 152 82 154 266 190 471 331 241 327 175 182 273 207 864 1326 1390 1596 1658 1714 2019 1443 1127
1125 799 829 527 680 1435 891 384 1537 1526 1777 1716 792 1019 146 389 156 328 280 1 0 13 40 85 71 109 175 255 180 229 180 35 91 139 334 1476 1399 1315 1562 1698 1657 1358 1072
99 546 1145 699 1596 1518 1806 2111 2034 1635 1384 1308 951 335 317 300 132 0 0 0 0 0 0 1 8 7 81 216 261 192 232 235 173 188 252 974 1191 1068 1506 1580 1726 1153 1184
795 1075 766 2255 2296 2441 2519 1374 386 1184 927 908 869 306 254 77 49 0 0 0 0 0 0 7 7 3 12 13 62 148 214 285 192 203 153 304 709 1127 1175 1107 1637 1338 1121
1120 959 855 1842 2514 3071 2286 1091 885 1261 704 1118 1129 628 427 216 102 0 0 0 0 0 0 0 0 0 24 27 81 127 143 294 182 283 77 31 201 696 1221 1509 1457 1372 1180
1022 989 1404 1724 2576 2921 2068 2032 1832 1550 1076 1029 1208 1255 416 310 526 258 0 0 0 0 0 0 0 0 0 37 147 146 279 387 350 296 143 30 102 535 984 1540 1646 1720 1457
1710 1786 2010 2796 3048 3114 2929 2609 2248 2223 1876 1767 1831 1442 653 535 278 272 313 1 0 0 0 0 1 1 0 6 38 61 394 392 330 257 85 62 117 193 971 1214 1582 1788 1401
1856 1910 1824 2232 2340 2779 2755 2014 1747 1818 1665 2157 1707 1264 815 741 479 215 111 0 0 0 0 1 0 0 4 3 134 254 428 382 347 313 185 246 214 102 334 995 1479 1433 1442
1050 1436 2221 2423 2352 2703 2329 2029 1933 1577 1657 1693 1125 1052 974 647 295 74 0 0 0 0 4 0 0 0 7 2 13 210 448 436 470 534 550 685 621 211 135 554 1036 1531 1548
1883 1645 1258 1315 1250 1125 1511 1925 1977 1351 1617 1441 1337 1062 957 786 465 48 0 0 1 1 1 4 14 0 0 0 27 131 339 651 613 602 633 614 592 696 730 635 598 515 1544
1327 1083 1595 1337 1521 1233 1953 1922 1627 1423 1973 1825 1695 1609 1467 1205 1062 495 0 0 0 1 1 1 1 3 0 0 0 0 0 428 421 150 35 163 279 153 131 146 200 285 702
1767 2015 1509 1650 1846 2206 2171 1801 1892 2466 2220 2421 2216 1813 1507 1610 1068 332 174 32 0 0 0 0 15 1 0 0 0 0 0 70 149 90 78 122 83 55 72 64 65 207 393
2507 2034 2117 2414 2489 2659 2658 2764 2447 2532 2593 2041 2108 1776 1875 1573 715 344 139 143 0 0 0 0 3 0 0 0 0 0 0 0 4 80 98 86 48 111 183 202 100 186 491
2245 2273 2696 2889 3071 3196 2922 2983 2495 2047 1674 2242 2066 1778 1188 1425 721 428 106 0 0 0 0 0 1 0 0 0 0 0 0 0 0 2 77 157 123 67 47 39 6 9 8
2165 2549 2995 3254 3281 3377 3236 2951 1949 1572 1942 2151 1495 885 574 392 1120 341 1 1 0 0 0 0 1 0 0 0 0 0 0 0 0 0 33 20 0 0 0 0 0 0 0
2763 2880 3027 3770 3549 3415 2704 1561 1341 1691 2053 1363 1110 522 253 319 515 6 1 0 0 0 0 0 0 0 0 0 0 0 0 0 0 0 0 0 0 0 0 0 0 0 0
3220 3384 3523 3560 3415 1302 621 764 1107 1398 1270 1220 750 211 32 259 217 0 0 0 0 0 0 0 0 0 0 0 0 0 0 0 0 0 0 0 0 0 0 0 0 0 0
3275 3457 3604 3783 955 93 1 1 102 1272 1181 755 553 193 0 0 0 0 0 0 0 0 0 0 0 0 0 0 0 0 0 0 0 0 0 0 0 0 0 0 0 0 0
3566 3814 3637 3239 77 0 0 0 1 362 880 384 245 246 0 0 0 0 0 0 0 0 0 1 0 0 0 0 0 0 0 1 3 0 0 0 0 0 0 0 0 0 0
3611 3705 3815 848 0 0 0 0 0 132 468 245 346 272 3 0 0 0 0 0 0 0 0 0 0 0 0 0 0 0 0 0 0 0 0 0 0 0 0 0 0 0 0
3696 3935 2334 262 0 0 0 0 0 434 421 47 0 0 93 0 0 0 0 0 0 0 0 0 0 0 0 0 0 0 0 0 0 4 0 0 0 0 0 0 0 0 0
4016 3252 1627 235 0 0 0 0 0 777 444 14 0 0 0 0 0 0 0 0 0 0 0 0 0 0 0 0 0 0 0 0 0 0 0 2 0 0 0 0 0 0 0
CIN
-114 -110 -61 -88 -65 -62 -79 -164 -215 -187 -215 -198 -332 -169 -299 -202 -375 -280 -345 -160 -178 -94 -22 -65 -50 -71 -51 -17 -6 -1 0 -1 -1 0 0 0 -5 -1 -1 -1 -8 -9 -16
-123 -117 -165 -189 -218 -237 -123 -184 -210 -181 -178 -192 -269 -295 -360 -244 -194 -185 -265 -163 -113 -23 -82 -76 -123 -91 -67 -124 -64 -48 -19 0 -1 -1 0 0 -2 -3 0 0 -5 -6 -13
-72 -248 -375 -326 -4 -23 -191 -117 -88 -63 -51 -133 -107 -114 -104 -107 -113 -171 -205 -152 -58 -66 -73 -76 -36 -7 -1 -29 -40 -55 -52 -47 -46 0 0 -1 -4 -3 -2 -1 0 0 -11
-120 -372 -326 -388 -317 -234 -264 -163 -106 -66 -93 -99 -98 -93 -126 -88 -134 -192 -143 -79 -109 -87 -34 0 -5 0 0 -7 -4 -22 -30 -74 -23 -2 -1 -1 -2 -2 -2 -1 0 -2 -4
-137 -186 0 0 -246 -259 -171 -198 -42 -75 -66 -63 -55 -98 -137 -118 -120 -96 -80 -85 -161 -77 -111 -38 -24 -7 -1 -2 -3 -2 -5 -12 -17 -20 -4 0 0 -1 -2 -1 0 -5 -5
-168 -203 -215 -292 -195 -136 -167 -194 -62 -57 -41 -50 -75 -50 -137 -142 -205 -164 -120 -11 -14 -127 -70 -64 -51 -24 -10 0 -3 -2 -5 -32 -27 -34 -15 0 0 -2 -2 -1 -2 -5 -6
-151 -140 -148 -154 -98 -78 -76 -52 -48 -56 -66 -53 -56 -116 -122 -126 -180 -1 0 0 0 0 0 -31 -106 -68 -25 -4 -4 -11 -21 -7 -13 -14 -19 -1 0 -2 -2 -2 0 -8 -6
-94 -91 -75 -43 -48 -40 -48 -70 -143 -82 -108 -86 -50 -116 -50 -110 -175 0 0 0 0 0 0 -13 -76 -38 -38 -65 -25 -4 -2 -14 0 -8 -9 -7 -6 -3 -2 -8 -1 -4 -13
-52 -66 -67 -60 -39 -43 -56 -71 -96 -40 -58 -83 -50 -43 -40 -52 -113 0 0 0 0 0 0 0 0 -9 -40 -51 -36 -28 0 -1 -5 -7 -13 -67 -18 -12 -8 -5 -4 -6 -12
-55 -91 -80 -50 -37 -37 -57 -64 -79 -56 -72 -45 -75 -58 -122 -77 -18 -51 0 0 0 0 0 0 0 0 -5 -31 -25 -23 -2 -1 0 0 -22 -50 -6 -13 -9 -2 -3 0 -6
-106 -76 -57 -38 -36 -32 -30 -31 -38 -31 -40 -35 -32 -34 -73 -78 -84 -36 -38 -64 0 0 0 0 -11 -24 -5 -110 -79 -62 -1 0 0 0 0 -3 -10 -38 0 -8 0 0 -7
-84 -82 -47 -37 -36 -32 -29 -42 -55 -46 -43 -35 -33 -44 -44 -40 -31 -50 -78 -15 0 0 0 -55 0 0 -59 -20 -32 -7 0 0 -2 -1 -2 -2 -36 -29 -39 -4 -1 -3 -2
-70 -134 -44 -36 -35 -29 -39 -57 -64 -67 -45 -39 -40 -42 -51 -61 -104 -165 0 0 0 -1 -1 0 -57 0 -23 -28 -2 -12 -1 -3 -3 -2 -5 -5 -5 -16 -58 -15 -4 0 0
-66 -41 -42 -45 -56 -82 -89 -73 -58 -68 -51 -48 -40 -55 -64 -79 -111 -271 0 0 0 0 0 0 -12 0 0 0 -31 -41 -10 -2 -4 -7 -9 -10 -17 -7 -7 -10 -29 -65 0
-117 -95 -71 -78 -94 -110 -85 -68 -67 -65 -37 -37 -35 -36 -36 -44 -59 -148 0 0 0 0 0 0 -2 -15 0 0 0 0 0 -5 -6 -11 -8 -20 -30 -56 -58 -71 -70 -74 -35
-95 -69 -105 -94 -96 -86 -64 -68 -65 -28 -28 -24 -24 -30 -44 -25 -73 -169 -164 -191 0 0 0 0 -16 -4 0 0 0 0 0 -43 -12 -31 -13 -1 -27 -44 -54 -97 -98 -60 -73
-66 -68 -71 -78 -71 -65 -44 -27 -36 -27 -22 -28 -22 -23 -15 -21 -111 -149 -188 -106 0 0 0 0 -18 0 0 0 0 0 0 0 -7 -1 -2 -5 -25 -16 -26 -51 -90 -60 -29
-96 -81 -66 -66 -51 -42 -29 -17 -46 -71 -64 -16 -13 -33 -64 -18 -104 -109 -212 0 0 0 0 0 -9 0 0 0 0 0 0 0 0 -36 -1 -1 -5 -43 -85 -108 -5 -194 -7
-112 -76 -59 -46 -39 -24 -20 -36 -102 -95 -44 -21 -64 -149 -184 -220 -42 -151 0 0 0 0 0 0 -4 0 0 0 0 0 0 0 0 0 -8 -3 0 0 0 0 0 0 0
-97 -81 -63 -28 -31 -27 -84 -168 -150 -98 -39 -83 -123 -225 -318 -263 -147 -156 0 0 0 0 0 0 0 0 0 0 0 0 0 0 0 0 0 0 0 0 0 0 0 0 0
-82 -66 -39 -28 -28 -248 -346 -257 -171 -118 -95 -103 -176 -359 -495 -280 -260 0 0 0 0 0 0 0 0 0 0 0 0 0 0 0 0 0 0 0 0 0 0 0 0 0 0
-101 -56 -41 -16 -347 -598 0 0 -488 -129 -114 -158 -199 -333 0 0 0 0 0 0 0 0 0 0 0 0 0 0 0 0 0 -3 0 0 0 0 0 0 0 0 0 0 0
-85 -51 -42 -54 -506 0 0 0 0 -363 -144 -236 -293 -281 0 0 0 0 0 0 0 0 0 -14 0 0 0 0 0 0 0 -98 -70 0 0 0 0 0 0 0 0 0 0
-79 -63 -31 -436 0 0 0 0 0 -526 -241 -279 -226 -249 -124 0 0 0 0 0 0 0 0 0 0 0 0 0 0 0 0 -33 0 0 0 0 0 0 0 0 0 0 0
-70 -26 -174 -566 0 0 0 0 0 -277 -222 -452 0 0 -288 0 0 0 0 0 0 0 0 0 0 0 0 0 0 0 0 0 0 -35 0 0 0 0 0 0 0 0 0
-30 -89 -228 -548 0 0 0 0 0 -148 -193 -131 0 0 -13 0 0 0 0 0 0 0 0 0 0 0 0 0 0 0 0 0 0 0 -6 -18 0 0 0 0 0 0 0
Wind_Speed
3 3 3 1 2 2 5 6 5 6 6 10 9 7 14 14 9 6 5 17 16 18 20 15 11 11 16 15 12 11 12 14 15 15 15 16 15 15 15 15 15 15 14
1 4 2 2 3 4 1 5 5 6 7 9 12 11 10 10 12 13 8 10 19 18 12 17 15 16 16 18 14 13 12 15 13 13 13 15 14 15 16 17 17 15 14
5 4 1 4 2 2 6 3 5 1 1 0 3 6 3 7 5 8 5 6 8 14 13 16 11 11 14 17 19 20 19 13 7 12 13 16 16 16 16 17 17 17 13
7 5 2 3 1 3 3 3 4 0 2 2 2 2 4 5 8 7 6 4 3 6 8 14 14 12 18 18 17 17 16 14 10 9 15 17 18 17 17 19 19 17 15
8 7 5 4 3 2 5 1 3 1 1 3 3 4 4 4 6 6 7 6 4 4 4 8 12 14 17 16 12 13 14 12 6 5 9 15 18 19 17 18 20 19 18
6 6 4 6 3 4 2 5 0 2 2 3 1 3 3 3 4 5 7 5 4 3 4 5 4 4 10 11 15 18 16 13 6 7 10 11 17 18 18 18 19 19 19
4 6 6 5 5 6 5 2 1 2 3 2 3 3 3 3 5 4 4 3 2 2 1 1 3 2 2 9 11 13 15 17 15 10 10 8 12 18 18 19 21 19 20
7 4 5 3 2 2 2 2 1 2 3 1 1 1 2 3 1 2 2 1 3 3 3 2 1 1 1 3 6 12 14 15 13 12 6 2 6 12 17 20 20 20 20
5 7 6 6 3 2 2 2 2 1 2 3 2 3 3 3 2 1 2 2 4 2 2 0 2 2 4 4 8 10 14 15 14 11 6 3 9 6 13 18 20 20 20
7 6 7 5 4 2 3 4 4 3 3 3 2 3 3 4 3 4 2 2 3 2 2 1 3 4 2 2 4 11 13 16 18 15 12 7 5 4 5 13 17 20 19
7 6 5 5 5 3 3 2 2 2 2 3 3 2 2 1 2 3 6 1 1 1 2 0 1 2 2 3 3 4 13 19 20 18 16 11 6 6 5 6 15 19 20
4 5 5 4 4 3 2 1 3 3 4 3 2 3 3 2 3 3 4 1 1 1 2 2 3 1 3 3 3 5 13 16 17 17 18 18 14 8 6 5 9 17 21
2 4 4 3 2 2 2 2 2 4 4 2 3 3 2 3 2 2 3 2 2 1 2 3 2 3 3 4 5 4 11 17 17 16 14 10 9 6 3 4 4 12 18
2 2 3 3 3 3 2 1 1 3 3 3 5 5 3 4 1 4 4 4 2 1 2 2 2 3 3 3 9 12 5 12 12 10 13 12 10 8 10 7 5 1 14
3 5 5 5 3 1 1 1 2 4 2 2 3 4 3 3 2 2 3 3 4 3 2 1 2 3 3 4 8 6 7 9 15 15 10 10 10 6 5 4 4 5 6
4 3 4 3 1 2 1 2 2 3 4 4 3 4 4 2 3 3 3 3 2 3 3 1 2 4 3 4 9 6 8 9 15 17 14 7 9 5 3 3 3 4 3
5 4 3 4 3 3 4 2 2 4 3 5 4 3 5 2 4 3 3 3 3 4 4 2 4 4 4 7 5 5 6 5 6 11 9 9 7 6 3 2 4 4 6
5 6 5 5 5 5 4 3 2 3 3 4 4 6 6 3 4 4 3 4 4 4 5 11 4 2 4 5 4 6 5 5 4 10 8 6 7 6 6 6 7 5 6
7 6 6 6 6 6 5 2 4 2 3 3 4 6 4 5 3 5 4 4 5 3 5 6 4 2 2 3 4 4 4 5 3 10 10 7 6 6 6 6 7 6 4
7 7 6 6 7 4 5 3 3 2 3 2 6 5 5 4 4 6 5 5 6 5 5 5 4 3 2 1 3 4 4 2 3 3 5 6 6 4 4 4 6 6 5
7 6 6 5 2 5 2 3 2 1 2 5 5 5 5 6 8 7 6 7 7 4 5 4 3 3 2 2 4 3 3 3 0 3 2 1 2 2 2 4 4 5 5
8 7 7 7 7 4 6 4 2 2 5 5 5 4 5 6 5 7 10 11 7 6 4 5 3 4 4 4 3 4 3 3 1 1 3 2 3 3 3 3 7 6 5
7 7 7 6 7 5 8 7 4 2 5 5 4 5 6 4 6 7 11 11 8 6 4 4 7 5 5 6 6 3 3 3 3 3 4 2 3 3 3 3 10 8 7
9 10 8 11 10 7 11 8 5 4 5 7 5 4 7 6 5 7 7 6 5 3 2 4 7 6 5 6 8 6 6 4 3 2 3 2 2 2 2 1 9 7 7
10 9 8 10 8 5 8 9 5 4 4 5 6 3 6 7 7 8 7 6 5 0 4 5 11 11 11 11 9 6 3 4 2 3 3 3 2 3 2 2 1 5 5
8 8 9 8 7 7 7 4 2 4 5 4 4 4 7 8 8 6 7 6 6 3 3 6 6 7 8 9 10 6 5 4 2 1 4 4 2 4 1 2 3 3 2
Wind_Direction
256 257 265 173 253 214 182 211 213 208 200 186 211 204 203 216 197 216 213 205 220 206 206 205 207 187 169 187 184 208 211 208 206 204 201 203 203 183 179 168 156 154 154
163 72 333 353 326 6 250 230 206 213 219 183 214 208 223 232 228 195 189 196 198 188 212 229 220 206 183 171 174 190 217 218 212 206 204 216 203 196 185 176 169 161 156
156 117 344 315 342 303 299 325 251 292 326 85 178 213 151 144 112 153 151 164 193 220 221 220 236 209 202 185 188 187 195 207 234 210 208 219 213 204 191 185 179 173 171
119 109 50 257 280 281 306 38 313 182 312 27 14 46 56 117 121 131 136 154 140 205 208 239 224 229 209 198 193 184 186 195 218 208 197 214 221 205 197 190 179 175 174
136 141 199 226 204 270 268 326 271 154 349 324 327 338 18 121 130 135 137 131 156 156 149 218 233 256 225 229 216 193 195 196 192 214 205 206 216 212 200 192 189 182 176
160 160 215 251 108 237 211 231 318 320 304 262 27 348 321 140 128 116 120 126 210 138 153 208 200 236 231 221 222 205 180 193 213 232 245 218 207 212 203 196 195 180 176
204 167 198 223 201 202 199 178 265 7 322 350 41 360 342 121 132 111 106 113 59 49 317 308 171 183 218 229 228 188 198 199 184 224 248 200 201 211 206 195 190 185 179
236 167 170 198 144 117 276 285 85 340 358 335 142 176 321 320 347 156 102 57 10 10 350 269 111 141 187 245 227 220 218 206 190 203 205 142 216 202 206 201 194 191 190
175 199 184 196 191 153 185 259 23 52 253 300 205 160 334 251 305 172 204 284 316 23 350 175 152 221 232 251 243 226 221 197 183 189 166 137 275 217 198 196 195 197 197
222 200 200 201 194 184 179 214 176 167 152 278 314 224 210 191 202 301 253 244 287 343 277 236 347 331 357 319 243 219 214 185 175 178 131 155 233 237 204 206 191 198 198
222 222 203 193 187 187 251 276 3 316 231 212 218 288 315 261 189 207 287 287 47 317 263 103 52 67 345 292 297 265 202 180 181 156 169 185 201 189 198 207 200 199 198
254 232 215 186 184 202 220 244 274 282 273 250 262 272 227 230 264 206 237 288 176 327 60 75 76 17 350 335 312 238 174 160 157 164 185 187 179 162 157 188 183 202 198
301 230 187 186 169 179 228 257 301 298 295 281 278 276 269 287 192 168 147 188 177 128 101 43 0 51 24 43 35 53 167 165 171 185 185 162 143 138 159 133 165 197 199
94 129 168 157 174 214 248 343 313 305 335 358 342 309 293 285 172 182 162 145 160 141 89 133 24 76 66 65 71 61 138 162 166 147 116 107 96 90 87 68 58 357 205
205 212 164 160 188 71 301 42 308 314 359 309 299 300 298 290 337 142 136 155 145 140 129 75 107 85 88 79 80 59 55 127 137 111 119 122 111 90 70 86 53 45 205
259 175 165 133 86 285 255 246 288 289 315 294 278 311 319 296 74 108 140 150 103 137 109 123 85 121 102 77 98 80 79 93 122 125 121 144 132 153 223 134 122 77 211
212 219 204 186 210 254 259 223 275 307 13 343 341 337 344 13 107 123 121 104 131 77 108 94 108 129 81 95 89 89 96 84 93 114 127 135 150 179 132 170 143 119 113
232 217 212 207 227 233 235 214 295 63 0 350 352 42 41 43 129 127 108 130 105 96 115 125 124 99 105 116 130 117 126 108 111 115 108 107 110 99 94 93 104 105 82
222 226 216 215 223 231 228 188 119 53 337 36 68 79 51 41 96 149 115 114 106 98 101 120 120 100 91 110 85 65 100 104 97 124 117 110 110 104 101 111 125 123 116
211 209 215 215 223 219 115 106 86 48 56 46 86 77 50 50 121 130 135 129 108 112 101 115 109 116 106 113 100 115 96 98 121 123 132 135 129 136 126 121 124 133 143
211 197 204 212 200 126 96 101 83 9 60 78 87 89 66 53 119 138 142 127 127 114 119 123 120 117 140 132 153 161 137 119 273 140 134 179 132 155 198 164 146 136 147
195 193 197 202 139 124 118 118 94 12 97 93 106 95 82 71 105 122 114 109 132 132 128 131 146 160 172 166 156 142 138 119 136 178 120 216 158 213 220 207 186 166 139
182 193 188 177 129 131 155 137 106 267 129 121 99 133 99 93 93 102 107 115 98 91 147 158 162 194 151 172 145 137 140 156 193 187 118 204 176 229 199 201 174 171 144
193 198 188 149 148 153 153 136 142 233 163 123 117 133 129 136 130 126 120 115 94 102 187 204 179 178 157 157 155 162 161 150 58 82 126 146 162 177 98 188 172 177 157
194 193 154 145 146 164 153 136 142 195 145 125 110 111 143 135 139 148 135 133 126 102 55 81 136 145 141 133 137 112 123 115 113 207 218 127 175 110 121 176 200 191 190
186 153 144 147 154 141 107 77 223 159 147 136 102 85 113 135 130 127 149 153 136 181 106 85 82 82 119 140 133 139 147 146 144 98 227 144 130 136 108 182 163 167 170